TimeCST,TemperatureF,Dew PointF,Humidity,Sea Level PressureIn,VisibilityMPH,Wind Direction,Wind SpeedMPH,Gust SpeedMPH,PrecipitationIn,Events,Conditions,WindDirDegrees,DateUTC
12:15 AM,49.3,39.2,68,29.86,10.0,Calm,Calm,-,N/A,,Clear,0,2012-11-09 06:15:00
12:35 AM,49.5,39.4,68,29.86,10.0,Calm,Calm,-,N/A,,Clear,0,2012-11-09 06:35:00
12:55 AM,48.9,39.7,71,29.85,10.0,SE,6.9,-,N/A,,Clear,130,2012-11-09 06:55:00
1:15 AM,47.5,39.4,73,29.84,10.0,Calm,Calm,-,N/A,,Clear,0,2012-11-09 07:15:00
1:35 AM,48.2,39.7,73,29.84,10.0,SE,5.8,-,N/A,,Clear,130,2012-11-09 07:35:00
1:55 AM,47.5,39.6,74,29.84,10.0,Calm,Calm,-,N/A,,Clear,0,2012-11-09 07:55:00
2:15 AM,48.4,39.9,73,29.84,10.0,Calm,Calm,-,N/A,,Clear,0,2012-11-09 08:15:00
2:35 AM,48.2,40.1,74,29.84,10.0,Calm,Calm,-,N/A,,Clear,0,2012-11-09 08:35:00
2:55 AM,47.8,40.1,75,29.84,10.0,Calm,Calm,-,N/A,,Clear,0,2012-11-09 08:55:00
3:15 AM,48.4,40.5,74,29.83,10.0,Calm,Calm,-,N/A,,Clear,0,2012-11-09 09:15:00
3:35 AM,48.2,40.5,75,29.83,10.0,Calm,Calm,-,N/A,,Clear,0,2012-11-09 09:35:00
3:55 AM,47.8,40.6,76,29.83,10.0,Calm,Calm,-,N/A,,Clear,0,2012-11-09 09:55:00
4:15 AM,46.9,40.5,78,29.83,10.0,Calm,Calm,-,N/A,,Clear,0,2012-11-09 10:15:00
4:35 AM,46.4,40.6,80,29.83,10.0,Calm,Calm,-,N/A,,Clear,0,2012-11-09 10:35:00
4:55 AM,46.4,41.0,81,29.83,10.0,Calm,Calm,-,N/A,,Clear,0,2012-11-09 10:55:00
5:15 AM,46.8,41.0,80,29.82,10.0,Calm,Calm,-,N/A,,Clear,0,2012-11-09 11:15:00
5:35 AM,46.2,41.0,82,29.82,10.0,Calm,Calm,-,N/A,,Clear,0,2012-11-09 11:35:00
5:55 AM,46.2,41.4,83,29.82,10.0,Calm,Calm,-,N/A,,Clear,0,2012-11-09 11:55:00
6:15 AM,46.9,41.9,83,29.81,10.0,Calm,Calm,-,N/A,,Clear,0,2012-11-09 12:15:00
6:35 AM,47.7,42.1,81,29.82,10.0,Calm,Calm,-,N/A,,Clear,0,2012-11-09 12:35:00
6:55 AM,48.2,41.9,79,29.83,10.0,Calm,Calm,-,N/A,,Clear,0,2012-11-09 12:55:00
7:35 AM,46.6,41.0,81,29.84,10.0,Calm,Calm,-,N/A,,Clear,0,2012-11-09 13:35:00
7:55 AM,47.5,42.4,83,29.84,10.0,Calm,Calm,-,N/A,,Clear,0,2012-11-09 13:55:00
8:15 AM,47.5,42.6,83,29.84,10.0,Calm,Calm,-,N/A,,Clear,0,2012-11-09 14:15:00
8:35 AM,51.8,43.9,74,29.84,10.0,Calm,Calm,-,N/A,,Clear,0,2012-11-09 14:35:00
8:55 AM,51.8,43.5,73,29.84,10.0,Calm,Calm,-,N/A,,Clear,0,2012-11-09 14:55:00
9:15 AM,53.6,44.6,72,29.83,10.0,SSE,5.8,-,N/A,,Clear,150,2012-11-09 15:15:00
9:35 AM,55.8,45.3,68,29.83,10.0,Calm,Calm,-,N/A,,Clear,0,2012-11-09 15:35:00
9:55 AM,56.1,45.5,68,29.83,10.0,Calm,Calm,-,N/A,,Clear,0,2012-11-09 15:55:00
10:15 AM,57.0,45.7,66,29.82,10.0,Calm,Calm,-,N/A,,Clear,0,2012-11-09 16:15:00
10:55 AM,58.6,46.4,64,29.82,10.0,SSE,9.2,-,N/A,,Clear,160,2012-11-09 16:55:00
11:15 AM,58.1,46.2,65,29.81,10.0,SE,8.1,-,N/A,,Clear,140,2012-11-09 17:15:00
11:35 AM,59.5,46.8,63,29.80,10.0,SE,6.9,-,N/A,,Clear,130,2012-11-09 17:35:00
11:55 AM,62.4,47.8,59,29.79,10.0,SSE,9.2,-,N/A,,Clear,150,2012-11-09 17:55:00
12:15 PM,63.7,48.4,57,29.77,10.0,SSE,10.4,-,N/A,,Clear,160,2012-11-09 18:15:00
12:35 PM,64.6,49.5,58,29.77,10.0,SSE,10.4,-,N/A,,Clear,160,2012-11-09 18:35:00
12:55 PM,65.5,49.5,56,29.75,10.0,SE,9.2,-,N/A,,Clear,140,2012-11-09 18:55:00
1:15 PM,66.0,50.0,56,29.75,10.0,South,12.7,17.3,N/A,,Clear,170,2012-11-09 19:15:00
1:35 PM,66.9,50.4,55,29.75,10.0,SSE,11.5,-,N/A,,Clear,160,2012-11-09 19:35:00
1:55 PM,68.0,50.4,53,29.74,10.0,SSE,11.5,-,N/A,,Clear,160,2012-11-09 19:55:00
2:15 PM,69.4,51.1,52,29.73,10.0,SSE,12.7,19.6,N/A,,Clear,160,2012-11-09 20:15:00
2:35 PM,69.8,51.1,51,29.72,10.0,SSE,11.5,-,N/A,,Clear,160,2012-11-09 20:35:00
2:55 PM,70.2,50.9,50,29.72,10.0,SSE,8.1,-,N/A,,Clear,150,2012-11-09 20:55:00
3:15 PM,70.7,51.1,50,29.71,10.0,SSE,12.7,18.4,N/A,,Clear,160,2012-11-09 21:15:00
3:35 PM,70.9,51.6,50,29.71,10.0,SSE,8.1,-,N/A,,Clear,160,2012-11-09 21:35:00
3:55 PM,70.7,52.2,52,29.70,10.0,South,11.5,-,N/A,,Clear,170,2012-11-09 21:55:00
4:15 PM,70.7,51.6,51,29.69,10.0,SE,9.2,-,N/A,,Clear,140,2012-11-09 22:15:00
4:35 PM,69.3,51.8,54,29.69,10.0,SE,8.1,-,N/A,,Clear,140,2012-11-09 22:35:00
4:55 PM,69.1,52.3,55,29.69,10.0,SSE,10.4,-,N/A,,Clear,150,2012-11-09 22:55:00
5:15 PM,67.8,53.1,59,29.69,10.0,SSE,8.1,-,N/A,,Clear,150,2012-11-09 23:15:00
5:35 PM,67.1,53.4,61,29.69,10.0,SE,9.2,-,N/A,,Clear,140,2012-11-09 23:35:00
5:55 PM,66.2,53.6,64,29.70,10.0,SE,9.2,-,N/A,,Clear,140,2012-11-09 23:55:00
6:15 PM,65.3,53.8,66,29.70,10.0,SSE,10.4,-,N/A,,Clear,150,2012-11-10 00:15:00
6:35 PM,64.9,54.1,68,29.69,10.0,SSE,11.5,-,N/A,,Clear,150,2012-11-10 00:35:00
6:55 PM,65.3,54.7,68,29.70,10.0,SE,11.5,-,N/A,,Clear,140,2012-11-10 00:55:00
7:15 PM,65.1,55.0,70,29.70,10.0,SE,11.5,-,N/A,,Clear,140,2012-11-10 01:15:00
7:35 PM,64.4,55.4,73,29.70,10.0,SSE,9.2,-,N/A,,Mostly Cloudy,150,2012-11-10 01:35:00
7:55 PM,64.2,55.4,73,29.70,10.0,SSE,12.7,-,N/A,,Scattered Clouds,150,2012-11-10 01:55:00
8:15 PM,64.0,55.8,74,29.70,10.0,SSE,12.7,-,N/A,,Clear,160,2012-11-10 02:15:00
8:35 PM,64.2,56.3,75,29.70,10.0,SSE,13.8,-,N/A,,Clear,160,2012-11-10 02:35:00
8:55 PM,64.0,56.3,76,29.71,10.0,South,13.8,-,N/A,,Clear,170,2012-11-10 02:55:00
9:15 PM,63.7,56.5,77,29.70,10.0,SSE,15.0,-,N/A,,Clear,160,2012-11-10 03:15:00
9:35 PM,63.5,56.5,78,29.70,10.0,SSE,11.5,18.4,N/A,,Clear,160,2012-11-10 03:35:00
9:55 PM,63.1,56.5,79,29.69,10.0,SSE,11.5,-,N/A,,Clear,160,2012-11-10 03:55:00
10:15 PM,62.6,56.5,80,29.69,10.0,SSE,10.4,-,N/A,,Clear,160,2012-11-10 04:15:00
10:35 PM,62.6,56.5,80,29.68,10.0,South,11.5,-,N/A,,Clear,170,2012-11-10 04:35:00
11:15 PM,62.6,57.0,82,29.67,10.0,SSE,15.0,-,N/A,,Clear,160,2012-11-10 05:15:00
11:35 PM,62.2,57.2,84,29.67,10.0,South,13.8,-,N/A,,Clear,170,2012-11-10 05:35:00
11:55 PM,62.2,57.2,84,29.67,10.0,South,15.0,20.7,N/A,,Clear,170,2012-11-10 05:55:00